{"data":{"norad_id":56887,"intl_designator":"2023-083M","name":"STARLINK-6180","alt_names":[],"object_type":"PAYLOAD","status":"ACTIVE","operator":null,"country":"US","launch_date":"2023-06-12","launch_site_code":"AFETR","launch_vehicle":null,"mission":null,"orbit_class":"UNKNOWN","rcs_meters":null,"size_class":null,"mass_kg":null,"dimensions":null,"purposes":["comms"],"wikipedia_slug":null,"has_3d_model":false,"image_url":null,"decayed_at":null,"tle_current":{"epoch":"2026-09-19T21:30:41.698080Z","epoch_age_seconds":169757,"freshness":"FRESH","line1":"1 56887U 23083M   26262.89631595  .00000042  00000+0  11035-4 0  9993","line2":"2 56887  43.0030  72.5251 0001279 254.5214 105.5496 15.27575004181286","mean_motion":15.27575004,"eccentricity":0.0001279,"inclination_deg":43.003,"raan_deg":72.5251,"arg_perigee_deg":254.5214,"mean_anomaly_deg":105.5496,"bstar":1.1035e-5,"rev_number":18128,"period_min":94.267057017123,"perigee_km":482.18650828668,"apogee_km":483.94160351678,"semimajor_km":6861.2010559017,"source":"CELESTRAK","updated_at":"2026-09-21T09:00:33.521580Z"}}}